Regional Weather Roundup
Issued by NWS Little Rock, AR

Home | Current Version | Previous Version | Text Only | Print | Product List | Glossary Off
Versions: 1 2 3 4 5 6 7 8 9 10 11 12 13 14 15 16 17 18 19 20 21 22 23 24 25 26 27

000
ASUS44 KLZK 230805
RWRLZK

WEATHER ROUNDUP FOR ARKANSAS
NATIONAL WEATHER SERVICE LITTLE ROCK AR
300 AM CDT THU OCT 23 2014

NOTE: "FAIR" INDICATES FEW OR NO CLOUDS BELOW 12,000 FEET WITH NO
SIGNIFICANT WEATHER AND/OR OBSTRUCTIONS TO VISIBILITY.

ARZ001-003-010-029-230900-
NORTHWEST ARKANSAS

CITY           SKY/WX    TMP DP  RH WIND       PRES   REMARKS
FAYETTEVILLE   CLOUDY    50  50 100 CALM      30.17R
FORT SMITH     CLOUDY    56  52  86 E7        30.16R
HARRISON       MOCLDY    47  47 100 SE8       30.17F
BENTONVILLE    CLOUDY    55  48  76 S5        30.15S
ROGERS         CLOUDY    55  50  83 SE5       30.16F
SILOAM SPGS    CLOUDY    55  46  71 S3        30.17R
HIGHFILL       CLOUDY    56  51  84 S5        30.15F
$$

ARZ004-005-016-230900-
NORTH CENTRAL ARKANSAS

CITY           SKY/WX    TMP DP  RH WIND       PRES   REMARKS
BATESVILLE     CLEAR     43  39  87 CALM      30.20S
FLIPPIN        PTCLDY    45  37  76 CALM      30.20S
MTN HOME       PTCLDY    47  42  83 SE3       30.18S
$$

ARZ040-041-230900-
WEST CENTRAL ARKANSAS

CITY           SKY/WX    TMP DP  RH WIND       PRES   REMARKS
MENA           CLOUDY    52  52 100 CALM      30.16S
MOUNT IDA      CLOUDY    50  48  93 CALM      30.14F
$$

ARZ009-017-025-026-028-230900-
NORTHEAST ARKANSAS

CITY           SKY/WX    TMP DP  RH WIND       PRES   REMARKS
CORNING        FAIR      45  41  87 N3        30.21S
JONESBORO      CLEAR     48  43  82 NE5       30.19F
NEWPORT        CLEAR     43  41  93 N5        30.20S
WALNUT RIDGE   CLEAR     43  30  61 N3        30.19F
BLYTHEVILLE    CLEAR     43  41  93 E3        30.20S
$$

ARZ022-023-033-042-044-230900-
CENTRAL ARKANSAS

CITY           SKY/WX    TMP DP  RH WIND       PRES   REMARKS
LITTLE ROCK    PTCLDY    49  44  83 CALM      30.18S
N LITTLE ROCK    N/A     51  45  80 NE5       30.18S
JACKSONVILLE   PTCLDY    43  40  89 CALM      30.18S
SEARCY         PTCLDY    44  42  93 CALM      30.21R
HOT SPRINGS    MOCLDY    50  46  86 CALM      30.17F
RUSSELLVILLE   MOCLDY    48  46  93 CALM      30.18S
$$

ARZ036-230900-
EAST ARKANSAS

CITY           SKY/WX    TMP DP  RH WIND       PRES   REMARKS
WEST MEMPHIS   CLEAR     45  44  97 CALM      30.17F
$$

ARZ050-053-066-070-073-230900-
SOUTHWEST ARKANSAS

CITY           SKY/WX    TMP DP  RH WIND       PRES   REMARKS
ARKADELPHIA    FAIR      51  50  97 CALM      30.17F
CAMDEN         MOCLDY    46  45  93 CALM      30.16S FOG
TEXARKANA      CLOUDY    54  51  90 E3        30.14F
EL DORADO      CLOUDY    49  47  93 CALM      30.16S
DE QUEEN       CLOUDY    55  51  86 CALM      30.14R
$$

ARZ056-057-069-230900-
SOUTHEAST ARKANSAS

CITY           SKY/WX    TMP DP  RH WIND       PRES   REMARKS
PINE BLUFF     CLEAR     48  44  86 CALM      30.18R
STUTTGART      CLEAR     45  39  81 N3        30.18R
MONTICELLO     CLEAR     45  43  93 CALM      30.16R

$$





USA.gov is the U.S. government's official web portal to all federal, state and local government web resources and services.